This is the latest recevied weather packets stored in our database for station/object AD0YN. If no packets are shown the sender has not sent any weather packets the latest 1 day(s).
| Time | Temp. | Humidity | Pressure | Rain* | Wind** | Luminosity | Snow |
|---|---|---|---|---|---|---|---|
| 1778032419 | 10.56° C | 81% | 1011.6 hPa | 0 mm | - | 0 W/m² | - |
| 1778032116 | 10.56° C | 79% | 1011.5 hPa | 0 mm | - | 0 W/m² | - |
| 1778031813 | 10.56° C | 79% | 1011.4 hPa | 0 mm | - | 0 W/m² | - |
| 1778031509 | 10.56° C | 79% | 1011.6 hPa | 0 mm | - | 0 W/m² | - |
| 1778030903 | 11.11° C | 79% | 1011.5 hPa | 0 mm | - | 0 W/m² | - |
| 1778030600 | 11.11° C | 78% | 1011.4 hPa | 0 mm | - | 0 W/m² | - |
| 1778030297 | 11.11° C | 78% | 1011.5 hPa | 0 mm | - | 1 W/m² | - |
| 1778029994 | 11.11° C | 78% | 1011.7 hPa | 0 mm | - | 1 W/m² | - |
| 1778029389 | 11.11° C | 78% | 1011.5 hPa | 0 mm | - | 3 W/m² | - |
| 1778028478 | 11.67° C | 75% | 1011 hPa | 0 mm | - | 12 W/m² | - |
| 1778028177 | 11.67° C | 74% | 1010.9 hPa | 0 mm | - | 15 W/m² | - |
| 1778027872 | 11.67° C | 73% | 1010.9 hPa | 0 mm | - | 15 W/m² | - |
| 1778027569 | 11.67° C | 72% | 1010.5 hPa | 0 mm | - | 27 W/m² | - |
| 1778027265 | 11.67° C | 72% | 1010.7 hPa | 0 mm | - | 23 W/m² | - |
| 1778026657 | 11.67° C | 72% | 1010.7 hPa | 0 mm | - | 27 W/m² | - |
| 1778021813 | 12.22° C | 63% | 1011 hPa | 0 mm | - | 44 W/m² | - |
| 1778020601 | 12.22° C | 63% | 1010.8 hPa | 0 mm | - | 104 W/m² | - |
| 1778017268 | 12.22° C | 62% | 1011.1 hPa | 0 mm | - | 196 W/m² | - |
| 1778016056 | 12.22° C | 64% | 1011.2 hPa | 0 mm | - | 177 W/m² | - |
| 1778015146 | 12.22° C | 63% | 1011.1 hPa | 0 mm | - | 143 W/m² | - |
* Rain latest hour (hover to see other rain measurements)
** Current wind speed in m/s (hover to see current wind gust speed)